Regional Weather Roundup
Issued by NWS

Home | Current Version | Previous Version | Graphics & Text | Print | Product List | Glossary On
Versions: 1 2 3 4 5 6 7 8 9 10 11 12 13 14 15 16 17 18 19 20 21 22 23 24 25 26 27 28 29 30 31 32 33 34 35 36 37 38 39 40 41 42 43 44 45 46 47 48 49 50
000
ASUS44 KMEG 231110
RWRTN
TENNESSEE HOURLY STATE WEATHER ROUNDUP
NATIONAL WEATHER SERVICE MEMPHIS TN
600 AM CDT SAT JUL 23 2016

TNZ002-004-019-021-049-052-054-088>092-231200-
WEST TENNESSEE

CITY           SKY/WX    TMP DP  RH WIND       PRES   REMARKS
MEMPHIS INTL   CLOUDY    80  75  84 SE6       29.96F
NWS MEMPHIS      N/A     77 N/A N/A MISG        N/A
JACKSON        CLOUDY    75  73  93 CALM      29.98F
DYERSBURG      CLOUDY    73  72  94 MISG      29.98R
UNION CITY     MOCLDY    73  73 100 E3        29.99R
PARIS          PTCLDY    72  72 100 CALM      30.01R
LEXINGTON      PTCLDY    73  73 100 CALM      29.99F
$$

TNZ008-025-027-028-033-062-065-066-231200-
NORTH MIDDLE TENNESSEE

CITY           SKY/WX    TMP DP  RH WIND       PRES   REMARKS
NASHVILLE      CLOUDY    76  72  87 CALM      30.00S
CLARKSVILLE    CLOUDY    73  71  93 SE3       29.99S
SMYRNA         CLOUDY    76  75  96 CALM      30.01R
COOKEVILLE     CLOUDY    73  72  94 CALM      30.02F VSB 1/4
CROSSVILLE     CLOUDY    73  72  96 CALM      30.08S FOG
$$

TNZ061-075-076-078-094-096-097-231200-
SOUTH MIDDLE TENNESSEE

CITY           SKY/WX    TMP DP  RH WIND       PRES   REMARKS
FAYETTEVILLE   CLEAR     72  72 100 CALM      30.04R
TULLAHOMA      CLEAR     72  72 100 CALM      30.05S
WINCHESTER     CLEAR     73  72  94 CALM      30.04S
MCMINNVILLE    CLEAR     72  72 100 CALM      30.04R
COLUMBIA       CLEAR    N/A N/A N/A CALM      30.00S
SHELBYVILLE    CLOUDY    75  75 100 CALM      30.03R
$$

TNZ017-018-042-046-047-231200-
NORTHEAST TENNESSEE

CITY           SKY/WX    TMP DP  RH WIND       PRES   REMARKS
TRI CITIES     PTCLDY    68  66  93 CALM      30.08R
ELIZABETHTON   CLEAR     68  66  94 CALM      30.08S
$$

TNZ012-013-036-069-073-074-231200-
CENTRAL EAST TENNESSEE

CITY           SKY/WX    TMP DP  RH WIND       PRES   REMARKS
KNOXVILLE      CLOUDY    76  71  85 CALM      30.02S
OAK RIDGE      CLOUDY    77  73  87 CALM      30.04S
GATLINBURG     PTCLDY    73  68  83 CALM      30.04R
MORRISTOWN     CLEAR     73  70  88 CALM      30.05R
$$

TNZ083-085-099-231200-
SOUTHEAST TENNESSEE

CITY           SKY/WX    TMP DP  RH WIND       PRES   REMARKS
CHATTANOOGA    PTCLDY    76  71  85 E3        30.02R
$$

SKY/WX REPORTED AS FAIR MEANS FEW OR NO CLOUDS BELOW
12 THOUSAND FEET.





USA.gov is the U.S. government's official web portal to all federal, state and local government web resources and services.